FW7989 Weather Reports


time (UTC)temp
F
wind
direction
speed
knots
gust
knots
rain 1hr
in
rain 24hr
in
rain mn
in
humidity
%
barometer
mb
20260904071624 63 308 13.0 20.9 0.00 0.06 0.05 91 1013.7
20260904071100 63 299 12.2 23.5 0.00 0.06 0.05 90 1013.6
20260904070600 63 298 13.0 23.5 0.00 0.05 0.04 90 1013.3
20260904070118 63 278 13.0 22.6 0.00 0.05 0.04 90 1013.4
20260904065602 63 266 13.0 22.6 0.00 0.05 0.04 89 1013.4
20260904065059 63 315 10.4 20.9 0.00 0.05 0.04 91 1013.2
20260904064604 63 294 12.2 20.9 0.00 0.05 0.04 90 1013.0
20260904064059 63 282 10.4 22.6 0.00 0.05 0.04 90 1013.1
20260904063602 63 277 9.6 22.6 0.00 0.05 0.04 90 1013.1
20260904063109 63 294 9.6 19.1 0.00 0.05 0.04 90 1012.9
20260904062559 63 315 11.3 20.9 0.00 0.05 0.04 90 1013.1
20260904062058 63 308 9.6 21.7 0.01 0.05 0.04 90 1012.9
20260904061611 63 277 11.3 22.6 0.01 0.05 0.04 90 1012.8
20260904061101 63 277 14.8 22.6 0.01 0.05 0.04 90 1012.9
20260904060603 63 283 12.2 24.3 0.03 0.05 0.04 91 1012.9
20260904060110 63 310 13.9 24.3 0.04 0.05 0.04 90 1012.8
20260904055557 63 297 13.0 22.6 0.03 0.04 0.03 90 1012.9
20260904055057 64 290 14.8 22.6 0.03 0.04 0.03 90 1012.8
20260904054637 64 283 12.2 22.6 0.03 0.04 0.03 90 1012.7
20260904054101 64 256 9.6 21.7 0.03 0.04 0.03 90 1012.7
20260904053600 64 273 11.3 21.7 0.03 0.04 0.03 90 1012.4
20260904053117 64 286 12.2 21.7 0.03 0.04 0.03 90 1012.3
20260904052557 64 278 8.7 19.1 0.03 0.04 0.03 90 1012.1
20260904052100 64 302 9.6 17.4 0.03 0.03 0.03 90 1012.0
20260904051627 65 288 9.6 25.2 0.03 0.03 0.03 89 1012.1
20260904051059 66 296 9.6 25.2 0.03 0.03 0.03 85 1012.0
20260904050557 69 250 7.8 13.9 0.00 0.01 0.00 85 1012.3
20260904050111 69 229 7.0 13.9 0.00 0.00 0.00 84 1011.2
20260904045557 69 217 7.0 12.2 0.00 0.00 0.00 84 1011.2
20260904045059 69 217 5.2 13.9 0.00 0.00 0.00 84 1011.3
20260904044615 69 229 7.0 13.9 0.00 0.00 0.00 83 1011.2
20260904044057 70 221 5.2 14.8 0.00 0.00 0.00 83 1011.2
20260904043559 70 234 8.7 14.8 0.00 0.00 0.00 83 1011.2
20260904043111 70 241 7.0 14.8 0.00 0.00 0.00 82 1011.2
20260904042603 70 229 10.4 14.8 0.00 0.00 0.00 82 1011.3
20260904042101 70 242 7.8 13.9 0.00 0.00 0.00 82 1011.3
20260904041608 70 239 6.1 14.8 0.00 0.00 0.00 82 1011.4
20260904041059 70 222 7.0 17.4 0.00 0.00 0.00 81 1011.2
20260904040559 70 272 8.7 17.4 0.00 0.00 0.00 81 1011.3
20260904040123 70 229 9.6 15.6 0.00 0.00 0.00 81 1011.4
20260904035600 70 262 7.8 13.0 0.00 0.00 0.00 82 1011.4
20260904035058 70 220 7.0 13.0 0.00 0.00 0.00 82 1011.4
20260904034611 70 231 6.1 13.0 0.00 0.00 0.00 82 1011.5
20260904034057 70 207 6.1 15.6 0.00 0.00 0.00 82 1011.3
20260904033602 70 225 7.0 15.6 0.00 0.00 0.00 82 1011.3
20260904033109 70 230 9.6 15.6 0.00 0.00 0.00 82 1011.5
20260904032559 70 219 8.7 13.9 0.00 0.00 0.00 82 1011.5
20260904032059 70 238 7.0 14.8 0.00 0.00 0.00 82 1011.6
20260904031611 70 242 8.7 14.8 0.00 0.00 0.00 82 1011.7
20260904031101 70 205 8.7 15.6 0.00 0.00 0.00 82 1011.8
20260904030558 70 237 8.7 16.5 0.00 0.00 0.00 82 1011.9
20260904030106 70 239 8.7 16.5 0.00 0.00 0.00 83 1011.7
20260904025559 69 212 7.8 16.5 0.00 0.00 0.00 83 1011.8
20260904025059 69 213 7.8 16.5 0.00 0.00 0.00 83 1011.8
20260904024600 69 204 7.0 13.0 0.00 0.00 0.00 84 1011.8
20260904024100 69 281 7.0 14.8 0.00 0.00 0.00 85 1011.7
20260904023559 69 194 7.8 14.8 0.00 0.00 0.00 85 1011.7
20260904023109 69 231 7.0 13.0 0.00 0.00 0.00 85 1011.7
20260904022559 69 202 6.1 13.9 0.00 0.00 0.00 85 1012.1
20260904022059 69 239 6.1 13.9 0.00 0.00 0.00 86 1012.3
20260904021609 69 205 6.1 13.0 0.00 0.00 0.00 86 1012.5
20260904021058 69 216 6.1 12.2 0.00 0.00 0.00 86 1012.5
20260904020558 69 196 5.2 12.2 0.00 0.00 0.00 86 1012.6
20260904020104 69 228 5.2 12.2 0.00 0.00 0.00 85 1012.6
20260904015559 69 209 5.2 10.4 0.00 0.00 0.00 85 1012.8
20260904015059 69 212 6.1 13.0 0.00 0.00 0.00 85 1012.9
20260904014609 69 214 6.1 13.0 0.00 0.00 0.00 85 1012.9
20260904014059 69 240 5.2 12.2 0.00 0.00 0.00 85 1012.9
20260904013559 69 198 6.1 12.2 0.00 0.00 0.00 85 1012.9
20260904013107 69 202 4.3 12.2 0.00 0.00 0.00 85 1012.9
20260904012559 69 195 5.2 12.2 0.00 0.00 0.00 85 1013.0
20260904012059 69 202 5.2 13.0 0.00 0.00 0.00 85 1012.9
20260904011609 69 204 6.1 13.9 0.00 0.00 0.00 85 1012.9
20260904011058 68 202 7.0 15.6 0.00 0.00 0.00 84 1013.0
20260904010557 69 192 7.0 15.6 0.00 0.00 0.00 84 1013.0
20260904010106 68 195 6.1 12.2 0.00 0.00 0.00 84 1013.1
20260904005557 69 227 6.1 11.3 0.00 0.00 0.00 84 1013.2
20260904005058 69 220 7.0 11.3 0.00 0.00 0.00 83 1013.2
20260904004606 69 198 5.2 12.2 0.00 0.00 0.00 83 1013.4
20260904004058 69 201 6.1 12.2 0.00 0.00 0.00 83 1013.3
20260904003557 69 192 7.0 12.2 0.00 0.00 0.00 82 1013.2
20260904003103 69 188 6.1 14.8 0.00 0.00 0.00 82 1013.5
20260904002558 69 198 6.1 14.8 0.00 0.00 0.00 82 1013.5
20260904002058 69 210 6.1 12.2 0.00 0.00 0.00 82 1013.5
20260904001609 69 181 7.8 12.2 0.00 0.00 0.00 82 1013.6
20260904001057 69 212 5.2 15.6 0.00 0.00 0.00 82 1013.7
20260904000557 69 204 5.2 15.6 0.00 0.00 0.00 81 1013.7
20260904000111 69 209 7.0 14.8 0.00 0.00 0.00 81 1013.6
20260903235558 69 189 7.0 15.6 0.00 0.00 0.00 81 1013.7
20260903235058 69 180 7.0 15.6 0.00 0.00 0.00 81 1013.8
20260903234605 69 213 7.0 14.8 0.00 0.00 0.00 81 1013.9
20260903234057 69 210 5.2 14.8 0.00 0.00 0.00 81 1013.9
20260903233558 69 180 6.1 12.2 0.00 0.00 0.00 81 1014.1
20260903233103 69 202 7.0 12.2 0.00 0.00 0.00 81 1014.1
20260903232559 69 190 5.2 12.2 0.00 0.00 0.00 81 1014.1
20260903232058 69 170 6.1 12.2 0.00 0.00 0.00 81 1014.1
20260903231603 69 221 3.5 7.0 0.00 0.00 0.00 81 1014.4
20260903231058 69 235 3.5 6.1 0.00 0.00 0.00 81 1014.5
20260903230558 69 215 2.6 10.4 0.00 0.00 0.00 81 1014.7
20260903230110 69 248 2.6 10.4 0.00 0.00 0.00 81 1014.8
20260903225558 69 234 5.2 10.4 0.00 0.00 0.00 81 1014.7
20260903225102 69 225 3.5 9.6 0.00 0.00 0.00 82 1014.8
20260903224603 68 228 4.3 10.4 0.00 0.00 0.00 82 1014.8
20260903224102 69 209 4.3 10.4 0.00 0.00 0.00 82 1014.8
20260903223600 68 218 3.5 11.3 0.00 0.00 0.00 82 1015.0
20260903223105 68 209 5.2 11.3 0.00 0.00 0.00 82 1015.0
20260903222557 68 215 3.5 7.8 0.00 0.00 0.00 83 1015.2
20260903222058 68 209 2.6 8.7 0.00 0.00 0.00 83 1015.4
20260903221605 68 232 4.3 9.6 0.00 0.00 0.00 83 1015.4
20260903221100 68 214 3.5 9.6 0.00 0.00 0.00 83 1015.5
20260903220559 68 229 3.5 10.4 0.00 0.00 0.00 83 1015.5
20260903220108 68 200 3.5 10.4 0.00 0.00 0.00 83 1015.6
20260903215559 69 214 5.2 12.2 0.00 0.00 0.00 83 1015.7
20260903215058 68 198 6.1 12.2 0.00 0.00 0.00 83 1015.8
20260903214614 68 227 5.2 10.4 0.00 0.00 0.00 83 1015.8
20260903214103 68 210 4.3 9.6 0.00 0.00 0.00 83 1015.7
20260903213559 68 231 4.3 10.4 0.00 0.00 0.00 83 1015.9
20260903213107 68 195 3.5 11.3 0.00 0.00 0.00 83 1015.9
20260903212558 68 215 4.3 11.3 0.00 0.00 0.00 83 1016.0
20260903212102 68 196 5.2 8.7 0.00 0.00 0.00 83 1016.0
20260903211614 68 199 4.3 8.7 0.00 0.00 0.00 84 1016.2
20260903211058 68 235 2.6 6.1 0.00 0.00 0.00 83 1016.3
20260903210558 68 232 1.7 4.3 0.00 0.00 0.00 83 1016.3
20260903210106 68 231 2.6 7.0 0.00 0.00 0.00 83 1016.3
20260903205559 68 244 2.6 7.0 0.00 0.00 0.00 83 1016.3
20260903205058 67 244 3.5 7.0 0.00 0.00 0.00 83 1016.4
20260903204604 67 245 2.6 6.1 0.00 0.00 0.00 83 1016.4
20260903204059 67 244 2.6 7.0 0.00 0.00 0.00 84 1016.4
20260903203559 67 234 2.6 7.0 0.00 0.00 0.00 84 1016.4
20260903203102 67 236 3.5 7.0 0.00 0.00 0.00 84 1016.4
20260903202559 67 225 3.5 7.8 0.00 0.00 0.00 84 1016.4
20260903202059 67 262 3.5 7.8 0.00 0.00 0.00 84 1016.5
20260903201610 67 251 4.3 9.6 0.00 0.00 0.00 83 1016.6
20260903201103 67 228 4.3 11.3 0.00 0.00 0.00 83 1016.7
20260903200559 67 230 7.0 12.2 0.00 0.00 0.00 82 1016.7
20260903195558 67 232 6.1 10.4 0.00 0.00 0.00 83 1016.8
20260903195058 67 232 5.2 10.4 0.00 0.00 0.00 83 1016.7
20260903194610 67 236 4.3 9.6 0.00 0.00 0.00 83 1016.8
20260903194055 67 205 4.3 9.6 0.00 0.00 0.00 84 1016.9
20260903193600 67 229 4.3 7.8 0.00 0.00 0.00 84 1017.0
20260903193103 67 229 4.3 7.8 0.00 0.00 0.00 84 1017.0
20260903192601 67 246 2.6 7.0 0.00 0.00 0.00 84 1017.1
20260903192056 67 202 3.5 7.0 0.00 0.00 0.00 85 1017.0
20260903191601 67 234 3.5 9.6 0.00 0.00 0.00 84 1017.0
20260903191059 67 256 4.3 9.6 0.00 0.00 0.00 85 1017.1
20260903190602 66 235 5.2 8.7 0.00 0.00 0.00 86 1017.1
20260903190111 66 241 2.6 8.7 0.00 0.00 0.00 87 1017.0
20260903185604 66 236 3.5 8.7 0.00 0.00 0.00 87 1017.0
20260903185056 66 246 2.6 9.6 0.00 0.00 0.00 88 1017.0
20260903184606 67 260 3.5 13.0 0.00 0.00 0.00 88 1017.3
20260903184102 67 237 5.2 13.9 0.00 0.00 0.00 88 1017.3
20260903183559 67 267 5.2 14.8 0.00 0.00 0.00 89 1017.3
20260903183106 67 273 8.7 14.8 0.00 0.00 0.00 89 1017.5
20260903182601 67 264 7.8 13.0 0.00 0.00 0.00 90 1017.5
20260903182055 67 304 7.8 13.0 0.00 0.00 0.00 90 1017.5
20260903181604 67 284 8.7 15.6 0.00 0.00 0.00 89 1017.5
20260903181100 67 277 7.8 17.4 0.00 0.00 0.00 88 1017.4
20260903180559 67 294 9.6 18.2 0.00 0.00 0.00 88 1017.4
20260903180105 67 296 9.6 18.2 0.00 0.00 0.00 87 1017.3
20260903175558 67 289 9.6 18.2 0.00 0.00 0.00 87 1017.4
20260903175059 67 284 9.6 17.4 0.00 0.00 0.00 87 1017.4
20260903174608 67 294 10.4 18.2 0.00 0.00 0.00 86 1017.4
20260903174057 67 296 8.7 18.2 0.00 0.00 0.00 85 1017.4
20260903173559 68 301 8.7 14.8 0.00 0.00 0.00 85 1017.4
20260903173105 68 284 9.6 18.2 0.00 0.00 0.00 86 1017.4
20260903172559 68 301 10.4 18.2 0.00 0.00 0.00 85 1017.6
20260903172101 68 277 9.6 14.8 0.00 0.00 0.00 85 1017.5
20260903171603 68 288 9.6 18.2 0.00 0.00 0.00 85 1017.4
20260903171056 68 284 9.6 18.2 0.00 0.00 0.00 84 1017.3
20260903170556 69 335 10.4 15.6 0.00 0.00 0.00 84 1017.4
20260903170107 69 286 10.4 15.6 0.00 0.00 0.00 84 1017.3
20260903165559 70 289 9.6 13.9 0.00 0.00 0.00 83 1017.2
20260903165101 70 309 9.6 13.9 0.00 0.00 0.00 81 1017.4
20260903164606 70 283 7.0 13.0 0.00 0.00 0.00 81 1017.2
20260903164059 70 269 2.6 8.7 0.00 0.00 0.00 80 1017.1
20260903163601 71 319 3.5 8.7 0.00 0.00 0.00 80 1017.1
20260903163106 71 314 5.2 8.7 0.00 0.00 0.00 80 1017.2
20260903162604 71 309 5.2 9.6 0.00 0.00 0.00 80 1017.2
20260903162102 71 299 5.2 9.6 0.00 0.00 0.00 80 1017.3
20260903161559 71 316 4.3 10.4 0.00 0.00 0.00 80 1017.2
20260903161055 71 286 7.0 13.9 0.00 0.00 0.00 80 1017.4
20260903160559 71 297 7.0 13.9 0.00 0.00 0.00 79 1017.4
20260903160106 71 299 4.3 11.3 0.00 0.00 0.00 79 1017.5
20260903155558 71 263 4.3 11.3 0.00 0.00 0.00 79 1017.6
20260903155058 71 296 5.2 9.6 0.00 0.00 0.00 79 1017.6
20260903154607 72 313 5.2 9.6 0.00 0.00 0.00 79 1017.7
20260903154059 72 276 6.1 9.6 0.00 0.00 0.00 78 1017.6
20260903153558 72 317 4.3 10.4 0.00 0.00 0.00 78 1017.6
20260903153130 72 237 5.2 10.4 0.00 0.00 0.00 77 1017.7
20260903152556 72 308 6.1 10.4 0.00 0.00 0.00 78 1017.7
20260903152059 72 303 4.3 12.2 0.00 0.00 0.00 77 1017.9
20260903151616 72 286 5.2 12.2 0.00 0.00 0.00 76 1017.9
20260903151056 73 267 5.2 12.2 0.00 0.00 0.00 76 1018.0
20260903150559 73 278 6.1 14.8 0.00 0.00 0.00 77 1018.0
20260903150121 73 269 7.8 14.8 0.00 0.00 0.00 77 1018.1
20260903145555 73 289 7.8 14.8 0.00 0.03 0.00 76 1018.2
20260903145058 73 277 7.8 14.8 0.00 0.03 0.00 75 1018.2
20260903144611 73 294 7.8 17.4 0.00 0.03 0.00 74 1018.1
20260903144102 74 309 8.7 17.4 0.00 0.03 0.00 75 1018.1
20260903143601 74 264 11.3 17.4 0.00 0.03 0.00 73 1018.3
20260903143109 75 309 7.0 13.0 0.00 0.03 0.00 73 1018.3
20260903142555 75 303 7.8 14.8 0.00 0.03 0.00 72 1018.3
20260903142058 76 238 8.7 14.8 0.00 0.03 0.00 68 1018.2
20260903141604 76 288 7.8 15.6 0.00 0.03 0.00 68 1018.1
20260903141059 76 302 7.8 15.6 0.00 0.03 0.00 70 1018.1
20260903140559 76 166 7.0 14.8 0.00 0.03 0.00 68 1018.3
20260903140109 75 313 6.1 13.0 0.00 0.03 0.00 71 1018.1
20260903135559 76 271 5.2 11.3 0.00 0.03 0.00 71 1018.0
20260903135059 76 277 5.2 13.0 0.00 0.03 0.00 72 1018.1
20260903134606 75 221 6.1 13.0 0.00 0.03 0.00 73 1018.2
20260903134055 75 285 5.2 10.4 0.00 0.03 0.00 74 1018.1
20260903133555 75 302 5.2 13.0 0.00 0.03 0.00 75 1018.2
20260903133104 75 242 6.1 15.6 0.00 0.03 0.00 75 1018.2
20260903132558 75 315 5.2 15.6 0.00 0.03 0.00 76 1018.4
20260903132058 74 313 5.2 12.2 0.00 0.03 0.00 78 1018.3
20260903131605 74 294 6.1 12.2 0.00 0.03 0.00 77 1018.3
20260903131058 74 271 6.1 11.3 0.00 0.03 0.00 77 1018.3
20260903130559 75 253 5.2 11.3 0.00 0.03 0.00 77 1018.3
20260903125559 74 309 5.2 8.7 0.00 0.03 0.00 76 1018.5
20260903125059 74 265 5.2 7.8 0.00 0.03 0.00 76 1018.3
20260903124601 74 272 4.3 9.6 0.00 0.03 0.00 78 1018.5
20260903124055 73 246 4.3 9.6 0.00 0.03 0.00 78 1018.4
20260903123558 73 301 6.1 8.7 0.00 0.03 0.00 76 1018.4
20260903123107 73 351 3.5 11.3 0.00 0.03 0.00 79 1018.3
20260903122559 73 303 5.2 11.3 0.00 0.03 0.00 80 1018.4
20260903122059 73 302 6.1 10.4 0.00 0.03 0.00 77 1018.3
20260903121606 73 285 6.1 11.3 0.00 0.03 0.00 78 1018.3
20260903121059 73 304 6.1 11.3 0.00 0.03 0.00 79 1018.4
20260903120558 72 312 4.3 13.0 0.00 0.03 0.00 81 1018.4
20260903115558 72 269 8.7 13.9 0.00 0.03 0.00 81 1018.4
20260903115102 71 311 5.2 11.3 0.00 0.03 0.00 81 1018.4
20260903114605 72 273 7.0 11.3 0.00 0.03 0.00 79 1018.3
20260903114059 73 300 6.1 11.3 0.00 0.03 0.00 78 1018.4
20260903113558 73 290 6.1 12.2 0.00 0.03 0.00 77 1018.3
20260903113103 74 262 7.0 12.2 0.00 0.03 0.00 77 1018.3
20260903112558 73 289 8.7 12.2 0.00 0.03 0.00 78 1018.3
20260903112058 73 304 7.0 12.2 0.00 0.03 0.00 78 1018.4
20260903111608 72 302 6.1 12.2 0.00 0.03 0.00 79 1018.3
20260903111057 72 323 7.8 11.3 0.00 0.03 0.00 80 1018.4
20260903110556 71 281 7.0 12.2 0.00 0.03 0.00 83 1018.4
20260903110106 70 300 5.2 13.0 0.00 0.03 0.00 84 1018.5
20260903105618 70 306 7.0 13.0 0.00 0.03 0.00 83 1018.5
20260903105100 70 343 3.5 12.2 0.00 0.03 0.00 84 1018.4
20260903104630 70 292 4.3 12.2 0.00 0.03 0.00 82 1018.4
20260903104102 70 269 4.3 12.2 0.00 0.03 0.00 80 1018.3
20260903103559 71 301 5.2 12.2 0.00 0.03 0.00 80 1018.1
20260903103108 71 279 6.1 10.4 0.00 0.03 0.00 80 1018.1
20260903102559 71 260 4.3 12.2 0.00 0.03 0.00 79 1018.1
20260903102057 71 290 5.2 12.2 0.00 0.03 0.00 79 1018.1
20260903101607 71 311 7.8 12.2 0.00 0.03 0.00 79 1018.2
20260903101058 70 360 4.3 12.2 0.00 0.03 0.00 80 1018.3
20260903100558 70 360 4.3 11.3 0.00 0.03 0.00 82 1018.4
20260903100106 70 297 5.2 11.3 0.00 0.03 0.00 83 1018.5
20260903095559 70 298 6.1 11.3 0.00 0.03 0.00 82 1018.5
20260903095103 70 289 4.3 10.4 0.00 0.03 0.00 82 1018.7
20260903094616 69 267 4.3 13.9 0.00 0.03 0.00 83 1018.6
20260903094059 69 302 6.1 13.9 0.00 0.03 0.00 82 1018.6
20260903093602 69 295 7.0 13.9 0.00 0.03 0.00 81 1018.6
20260903093109 70 284 7.8 13.9 0.00 0.03 0.00 81 1018.5
20260903092600 69 278 7.0 13.0 0.00 0.03 0.00 82 1018.5
20260903092058 69 273 7.0 13.0 0.00 0.03 0.00 81 1018.4
20260903091609 69 273 7.0 12.2 0.00 0.03 0.00 81 1018.6
20260903091100 69 278 4.3 13.0 0.00 0.03 0.00 82 1018.6
20260903090602 68 360 6.1 13.0 0.00 0.03 0.00 81 1018.5
20260903090108 68 284 6.1 13.0 0.00 0.03 0.00 82 1018.7
20260903085558 68 239 6.1 14.8 0.00 0.06 0.00 82 1018.6
20260903085059 68 360 7.0 14.8 0.00 0.06 0.00 82 1018.6
20260903084605 68 255 7.8 14.8 0.00 0.06 0.00 82 1018.5
20260903084059 68 288 7.0 13.9 0.00 0.06 0.00 83 1018.6
20260903083602 68 295 7.8 13.9 0.00 0.06 0.00 83 1018.5
20260903083108 68 257 7.0 13.9 0.00 0.06 0.00 83 1018.5
20260903082559 69 294 6.1 14.8 0.00 0.06 0.00 83 1018.5
20260903082102 69 309 5.2 14.8 0.00 0.06 0.00 83 1018.5
20260903081630 69 281 7.0 14.8 0.00 0.06 0.00 82 1018.4
20260903081100 69 293 7.0 12.2 0.00 0.06 0.00 83 1018.5
20260903080559 69 307 7.0 12.2 0.00 0.06 0.00 83 1018.4
20260903080111 69 223 5.2 11.3 0.00 0.06 0.00 84 1018.5
20260903075600 68 290 6.1 10.4 0.00 0.07 0.00 83 1018.3
20260903075059 69 302 3.5 9.6 0.00 0.07 0.00 84 1018.2
20260903074617 69 360 3.5 8.7 0.00 0.07 0.00 84 1018.3
20260903074100 69 267 1.7 7.8 0.00 0.07 0.00 83 1018.2
20260903073559 69 267 3.5 7.8 0.00 0.07 0.00 83 1018.2
20260903073124 68 224 2.6 7.0 0.00 0.07 0.00 83 1018.0
20260903072559 68 261 1.7 7.0 0.00 0.07 0.00 83 1018.0
20260903072059 68 238 2.6 6.1 0.00 0.07 0.00 84 1017.9